This is the latest recevied weather packets stored in our database for station/object DL7KAW-10. If no packets are shown the sender has not sent any weather packets the latest 10 day(s).
| Time | Temp. | Humidity | Pressure | Rain* | Wind** | Luminosity | Snow |
|---|---|---|---|---|---|---|---|
| 1777569936 | 15.56° C | 45% | 1029.7 hPa | - | - | - | - |
| 1777569036 | 15° C | 47% | 1029.8 hPa | - | - | - | - |
| 1777568136 | 15° C | 47% | 1029.7 hPa | - | - | - | - |
| 1777567236 | 15.56° C | 46% | 1029.7 hPa | - | - | - | - |
| 1777566336 | 15° C | 46% | 1029.8 hPa | - | - | - | - |
| 1777565435 | 15° C | 46% | 1029.9 hPa | - | - | - | - |
| 1777564535 | 15° C | 46% | 1030 hPa | - | - | - | - |
| 1777563635 | 15° C | 47% | 1029.9 hPa | - | - | - | - |
| 1777562735 | 15° C | 46% | 1030 hPa | - | - | - | - |
| 1777561835 | 15.56° C | 43% | 1029.9 hPa | - | - | - | - |
| 1777560935 | 15° C | 44% | 1030 hPa | - | - | - | - |
| 1777560035 | 14.44° C | 48% | 1030.2 hPa | - | - | - | - |
| 1777559135 | 14.44° C | 49% | 1030.4 hPa | - | - | - | - |
| 1777558234 | 15° C | 49% | 1030.5 hPa | - | - | - | - |
| 1777557334 | 15° C | 48% | 1030.6 hPa | - | - | - | - |
| 1777556434 | 15.56° C | 44% | 1030.7 hPa | - | - | - | - |
| 1777555534 | 15.56° C | 41% | 1030.9 hPa | - | - | - | - |
| 1777554634 | 15.56° C | 43% | 1031 hPa | - | - | - | - |
| 1777553734 | 15.56° C | 41% | 1031.1 hPa | - | - | - | - |
| 1777552834 | 15.56° C | 41% | 1031.2 hPa | - | - | - | - |
| 1777551934 | 15.56° C | 44% | 1031.4 hPa | - | - | - | - |
| 1777551034 | 15° C | 46% | 1031.6 hPa | - | - | - | - |
| 1777550133 | 15.56° C | 41% | 1031.4 hPa | - | - | - | - |
| 1777549233 | 15.56° C | 42% | 1031.5 hPa | - | - | - | - |
| 1777548333 | 15.56° C | 45% | 1031.6 hPa | - | - | - | - |
* Rain since midnight (hover to see other rain measurements)
** Current wind speed in m/s (hover to see current wind gust speed)